When you browse on this site, cookies collect data to enhance your experience and personalize the content and advertising you see.
Visit our Privacy Policy to learn more. By continuing to use the site, you agree to this use of cookies and data.
  • In Austria
  • List of Countries
  • For 7 days
  • Water Temperature
  • Weather Map
  • News
  • Weather Widgets
  • user-avatar
    Login

    Hourly Weather Zatyshne

    Today, 22 September, Sunday

    Time Temperature Precipitation Wind Pressure Humidity
    00:00 +7°C° 0 mm 3 mps 747 mmHg 63%
    01:00 +6°C° 0 mm 4 mps 747 mmHg 63%
    02:00 +5°C° 0 mm 4 mps 747 mmHg 61%
    03:00 +6°C° 0 mm 5 mps 747 mmHg 59%
    04:00 +6°C° 0 mm 5 mps 746 mmHg 56%
    05:00 +5°C° 0 mm 6 mps 746 mmHg 54%
    06:00 +8°C° 0 mm 7 mps 746 mmHg 51%
    07:00 +9°C° 0 mm 8 mps 745 mmHg 47%
    08:00 +11°C° 0 mm 9 mps 745 mmHg 43%
    09:00 +11°C° 0.1 mm 9 mps 745 mmHg 51%
    10:00 +11°C° 0.1 mm 8 mps 745 mmHg 59%
    11:00 +11°C° 0.1 mm 8 mps 745 mmHg 67%
    12:00 +13°C° 0 mm 8 mps 745 mmHg 63%
    13:00 +15°C° 0 mm 9 mps 744 mmHg 58%
    14:00 +17°C° 0 mm 9 mps 744 mmHg 53%
    15:00 +17°C° 0 mm 8 mps 744 mmHg 55%
    16:00 +16°C° 0 mm 7 mps 744 mmHg 56%
    17:00 +16°C° 0 mm 6 mps 743 mmHg 57%
    18:00 +15°C° 0 mm 5 mps 744 mmHg 60%
    19:00 +15°C° 0 mm 4 mps 744 mmHg 62%
    20:00 +14°C° 0 mm 3 mps 744 mmHg 65%
    21:00 +13°C° 0 mm 3 mps 744 mmHg 68%
    22:00 +13°C° 0 mm 3 mps 743 mmHg 71%
    23:00 +12°C° 0 mm 4 mps 743 mmHg 74%

    Tomorrow, 23 September, Monday

    Time Temperature Precipitation Wind Pressure Humidity
    00:00 +12°C° 0 mm 4 mps 743 mmHg 73%
    01:00 +12°C° 0 mm 5 mps 743 mmHg 71%
    02:00 +12°C° 0 mm 5 mps 743 mmHg 70%
    03:00 +10°C° 0 mm 5 mps 743 mmHg 74%
    04:00 +11°C° 0 mm 4 mps 743 mmHg 77%
    05:00 +10°C° 0 mm 4 mps 743 mmHg 80%
    06:00 +12°C° 0 mm 4 mps 744 mmHg 76%
    07:00 +13°C° 0 mm 4 mps 744 mmHg 72%
    08:00 +14°C° 0 mm 4 mps 745 mmHg 68%
    09:00 +15°C° 0 mm 4 mps 745 mmHg 65%
    10:00 +15°C° 0 mm 4 mps 745 mmHg 62%
    11:00 +15°C° 0 mm 4 mps 745 mmHg 58%
    12:00 +16°C° 0 mm 3 mps 745 mmHg 57%
    13:00 +16°C° 0 mm 3 mps 745 mmHg 55%
    14:00 +16°C° 0 mm 3 mps 745 mmHg 54%
    15:00 +16°C° 0 mm 3 mps 745 mmHg 52%
    16:00 +14°C° 0 mm 3 mps 745 mmHg 51%
    17:00 +14°C° 0 mm 3 mps 746 mmHg 50%
    18:00 +13°C° 0 mm 3 mps 746 mmHg 49%
    19:00 +13°C° 0 mm 3 mps 746 mmHg 48%
    20:00 +12°C° 0 mm 3 mps 747 mmHg 47%
    21:00 +11°C° 0 mm 3 mps 747 mmHg 44%
    22:00 +11°C° 0 mm 3 mps 747 mmHg 42%
    23:00 +10°C° 0 mm 4 mps 747 mmHg 40%

    Day after tomorrow, 24 September, Tuesday

    Time Temperature Precipitation Wind Pressure Humidity
    00:00 +10°C° 0 mm 4 mps 747 mmHg 39%
    01:00 +10°C° 0 mm 4 mps 747 mmHg 37%
    02:00 +10°C° 0 mm 4 mps 747 mmHg 36%
    03:00 +8°C° 0 mm 4 mps 747 mmHg 38%
    04:00 +9°C° 0 mm 3 mps 747 mmHg 40%
    05:00 +8°C° 0 mm 3 mps 747 mmHg 42%
    06:00 +9°C° 0 mm 3 mps 747 mmHg 41%
    07:00 +11°C° 0 mm 4 mps 747 mmHg 40%
    08:00 +12°C° 0 mm 4 mps 747 mmHg 39%
    09:00 +13°C° 0 mm 3 mps 747 mmHg 37%
    10:00 +14°C° 0 mm 3 mps 747 mmHg 35%
    11:00 +16°C° 0 mm 3 mps 747 mmHg 33%
    12:00 +17°C° 0 mm 2 mps 747 mmHg 32%
    13:00 +18°C° 0 mm 2 mps 746 mmHg 30%
    14:00 +18°C° 0 mm 2 mps 746 mmHg 29%
    15:00 +17°C° 0 mm 2 mps 746 mmHg 31%
    16:00 +17°C° 0 mm 2 mps 746 mmHg 32%
    17:00 +16°C° 0 mm 2 mps 745 mmHg 34%
    18:00 +14°C° 0 mm 2 mps 746 mmHg 35%
    19:00 +13°C° 0 mm 2 mps 746 mmHg 36%
    20:00 +12°C° 0 mm 2 mps 746 mmHg 37%
    21:00 +10°C° 0 mm 3 mps 746 mmHg 35%
    22:00 +10°C° 0 mm 3 mps 745 mmHg 34%
    23:00 +9°C° 0 mm 3 mps 745 mmHg 32%

    25 September, Wednesday

    Time Temperature Precipitation Wind Pressure Humidity
    00:00 +9°C° 0 mm 3 mps 745 mmHg 33%
    01:00 +9°C° 0 mm 3 mps 745 mmHg 34%
    02:00 +8°C° 0 mm 3 mps 745 mmHg 35%
    03:00 +8°C° 0 mm 3 mps 745 mmHg 37%
    04:00 +8°C° 0 mm 3 mps 745 mmHg 39%
    05:00 +7°C° 0 mm 3 mps 746 mmHg 42%
    06:00 +9°C° 0 mm 3 mps 746 mmHg 41%
    07:00 +11°C° 0 mm 3 mps 746 mmHg 40%
    08:00 +13°C° 0 mm 3 mps 746 mmHg 39%
    09:00 +14°C° 0 mm 3 mps 746 mmHg 35%
    10:00 +17°C° 0 mm 3 mps 746 mmHg 32%
    11:00 +18°C° 0 mm 3 mps 746 mmHg 28%
    12:00 +19°C° 0 mm 3 mps 746 mmHg 27%
    13:00 +19°C° 0 mm 3 mps 746 mmHg 25%
    14:00 +20°C° 0 mm 3 mps 745 mmHg 23%
    15:00 +19°C° 0 mm 3 mps 745 mmHg 24%
    16:00 +17°C° 0 mm 3 mps 745 mmHg 26%
    17:00 +16°C° 0 mm 2 mps 745 mmHg 27%
    18:00 +14°C° 0 mm 3 mps 745 mmHg 28%
    19:00 +13°C° 0 mm 3 mps 746 mmHg 29%
    20:00 +12°C° 0 mm 3 mps 746 mmHg 30%
    21:00 +11°C° 0 mm 3 mps 746 mmHg 32%
    22:00 +11°C° 0 mm 3 mps 746 mmHg 35%
    23:00 +10°C° 0 mm 3 mps 745 mmHg 38%

    26 September, Thursday

    Time Temperature Precipitation Wind Pressure Humidity
    00:00 +10°C° 0 mm 3 mps 745 mmHg 40%
    01:00 +9°C° 0 mm 3 mps 745 mmHg 43%
    02:00 +9°C° 0 mm 3 mps 745 mmHg 45%
    03:00 +8°C° 0 mm 4 mps 745 mmHg 46%
    04:00 +7°C° 0 mm 4 mps 745 mmHg 47%
    05:00 +7°C° 0 mm 4 mps 745 mmHg 48%
    06:00 +10°C° 0 mm 4 mps 745 mmHg 43%
    07:00 +10°C° 0 mm 5 mps 745 mmHg 38%
    08:00 +13°C° 0 mm 6 mps 745 mmHg 33%
    09:00 +14°C° 0 mm 6 mps 745 mmHg 33%
    10:00 +16°C° 0 mm 6 mps 745 mmHg 34%
    11:00 +17°C° 0 mm 6 mps 745 mmHg 34%
    12:00 +19°C° 0 mm 5 mps 744 mmHg 38%
    13:00 +19°C° 0 mm 5 mps 744 mmHg 43%
    14:00 +20°C° 0 mm 5 mps 743 mmHg 47%
    15:00 +19°C° 0 mm 4 mps 743 mmHg 52%
    16:00 +18°C° 0 mm 4 mps 743 mmHg 57%
    17:00 +18°C° 0 mm 3 mps 743 mmHg 61%
    18:00 +17°C° 0 mm 3 mps 743 mmHg 66%
    19:00 +16°C° 0 mm 3 mps 743 mmHg 70%
    20:00 +14°C° 0 mm 3 mps 742 mmHg 74%
    21:00 +14°C° 0 mm 2 mps 742 mmHg 76%
    22:00 +14°C° 0 mm 2 mps 742 mmHg 78%
    23:00 +13°C° 0 mm 2 mps 742 mmHg 81%

    27 September, Friday

    Time Temperature Precipitation Wind Pressure Humidity
    00:00 +13°C° 0 mm 2 mps 742 mmHg 82%
    01:00 +12°C° 0 mm 2 mps 741 mmHg 83%
    02:00 +12°C° 0 mm 2 mps 741 mmHg 84%
    03:00 +10°C° 0 mm 2 mps 741 mmHg 85%
    04:00 +11°C° 0 mm 1 mps 741 mmHg 86%
    05:00 +11°C° 0 mm 1 mps 741 mmHg 87%
    06:00 +12°C° 0 mm 1 mps 741 mmHg 81%
    07:00 +13°C° 0 mm 1 mps 741 mmHg 75%
    08:00 +15°C° 0 mm 1 mps 741 mmHg 68%
    09:00 +16°C° 0 mm 1 mps 741 mmHg 63%
    10:00 +19°C° 0 mm 1 mps 741 mmHg 58%
    11:00 +20°C° 0 mm 2 mps 741 mmHg 53%
    12:00 +20°C° 0 mm 2 mps 741 mmHg 51%
    13:00 +20°C° 0 mm 2 mps 741 mmHg 50%
    14:00 +20°C° 0 mm 3 mps 741 mmHg 49%
    15:00 +19°C° 0 mm 3 mps 741 mmHg 52%
    16:00 +18°C° 0 mm 3 mps 741 mmHg 55%
    17:00 +18°C° 0 mm 3 mps 741 mmHg 58%
    18:00 +17°C° 0 mm 3 mps 741 mmHg 59%
    19:00 +16°C° 0 mm 2 mps 741 mmHg 60%
    20:00 +15°C° 0 mm 2 mps 741 mmHg 61%
    21:00 +15°C° 0 mm 2 mps 741 mmHg 63%
    22:00 +13°C° 0 mm 3 mps 741 mmHg 66%
    23:00 +12°C° 0 mm 3 mps 742 mmHg 69%
    Show more